Preview of NWS' New Version of Forecast
This preview is not operational and should not be used for support decisions.

Regional Weather Roundup (RWR)

Issued by National Weather Service (NWS)

                            
000
ASUS43 KDMX 190701
RWRIA 

WEATHER ROUNDUP FOR IOWA
NATIONAL WEATHER SERVICE DES MOINES IA
200 AM CDT SUN MAY 19 2019

NOTE: "FAIR" INDICATES FEW OR NO CLOUDS BELOW 12,000 FEET WITH NO
SIGNIFICANT WEATHER AND/OR OBSTRUCTIONS TO VISIBILITY.

* - THESE STATIONS ARE NOT NWS STATIONS...THUS NOT UNDER NWS
QUALITY CONTROL.  THEY ALSO DO NOT REPORT WEATHER SUCH 
AS PRECIPITATION OR FOG.  

IAZ001>003-012>014-020>022-031>034-043>046-190800-
   NORTHWEST IOWA
  
CITY           SKY/WX    TMP DP  RH WIND       PRES   REMARKS
CARROLL *      DRIZZLE   59  57  94 NW7       29.57F                  
CHEROKEE *     CLOUDY    55  53  95 CALM      29.60S                  
DENISON *      CLOUDY    57  57 100 NW10      29.61S                  
LE MARS *      CLOUDY    54  54 100 N5        29.60F FOG              
SHELDON *      CLOUDY    50  50 100 N10       29.60S FOG              
SIOUX CITY     CLOUDY    55  52  89 W14       29.61S                  
SPENCER        CLOUDY    53  50  89 N9        29.59F                  
STORM LAKE *   CLOUDY    54  54 100 N8        29.57R                  
$$
 
IAZ055>058-069>071-079>083-090>094-190800-
   SOUTHWEST IOWA
  
CITY           SKY/WX    TMP DP  RH WIND       PRES   REMARKS
ATLANTIC *     CLOUDY    59  59 100 NW5       29.59R                  
AUDUBON *      CLOUDY    57  55  94 CALM      29.59S                  
CLARINDA *     CLOUDY    57  57 100 CALM      29.62R                  
COUNCIL BLFS * CLOUDY    57  57 100 NW10G16   29.59R                  
CRESTON *      CLOUDY    57  57 100 N10       29.58S FOG              
HARLAN  *      MOCLDY    57  57 100 NW9       29.59S                  
LAMONI         CLOUDY    59  57  93 NW6       29.58S                  
RED OAK *      MOCLDY    59  59 100 NW7       29.60S                  
SHENANDOAH *   CLOUDY    59  59 100 NW5       29.60R                  
$$
 
IAZ047>049-059>061-072>074-084-190800-
   CENTRAL IOWA
  
CITY           SKY/WX    TMP DP  RH WIND       PRES   REMARKS
AMES           LGT RAIN  59  56  89 NW21G33   29.52F                  
ANKENY *       CLOUDY    59  57  94 MISG      29.55R                  
BOONE *        CLOUDY    57  57 100 NW22G31   29.53F                  
CHARITON *     CLOUDY    59  59 100 NW12      29.56S FOG              
DES MOINES     DRIZZLE   59  57  93 NW12      29.55S                  
GRINNELL*      CLOUDY    59  58  96 W12       29.53F                  
KNOXVILLE *    LGT RAIN  59  59 100 W10       29.54F                  
MARSHALLTOWN   CLOUDY    60  60 100 S14       29.45F                  
NEWTON *         N/A     61  61 100 W10G17    29.53S                  
PELLA *        DRIZZLE   60  59  97 W6        29.55F                  
PERRY *        LGT RAIN  58  58 100 NW12      29.56F                  
$$
 
IAZ004>006-015-016-023>025-035-036-190800-
   NORTH CENTRAL IOWA
  
CITY           SKY/WX    TMP DP  RH WIND       PRES   REMARKS
ALGONA *       RAIN      54  54 100 N12G18    29.56S                  
CLARION *      CLOUDY    57  57 100 N14G23    29.53F FOG              
ESTHERVILLE    LGT RAIN  48  47  96 N15       29.59F                  
MASON CITY     LGT RAIN  51  51 100 N20       29.56S FOG              
FOREST CITY *  HVY RAIN  52  50  93 NE13G18   29.57S                  
IOWA FALLS *   DRIZZLE   61  60  98 N7        29.49F                  
$$

IAZ007>011-017>019-026>030-037>042-050>054-066-190800-
   NORTHEAST IOWA
  
CITY           SKY/WX    TMP DP  RH WIND       PRES   REMARKS
CEDAR RAPIDS   CLOUDY    63  62  97 S12       29.52S                  
CHARLES CITY * LGT RAIN  52  50  93 NE14      29.53F                  
CLINTON *      CLOUDY    67  62  84 S14       29.55F                  
DECORAH *      LGT RAIN  50  50 100 E15       29.54F                  
DUBUQUE        MOCLDY    65  61  87 SE9       29.56F                  
MONTICELLO *   CLOUDY    66  66 100 S15G23    29.54S                  
OELWEIN *      CLOUDY    63  63 100 SE15      29.50F FOG              
WATERLOO       CLOUDY    65  62  90 SE14G23   29.47F                  
$$
 
IAZ064-065-067-068-078-190800-
   EAST CENTRAL IOWA
  
CITY           SKY/WX    TMP DP  RH WIND       PRES   REMARKS
DAVENPORT      FAIR      67  60  78 S16       29.57S                  
IOWA CITY      CLOUDY    65  62  90 S14G20    29.54F                  
MT. PLEASANT * CLOUDY    64  64 100 SW14      29.56F                  
MUSCATINE *    CLOUDY    66  63  88 S16G23    29.55F                  
$$
 
IAZ062-063-075>077-085>089-095>099-190800-
   SOUTHEAST IOWA
  
CITY           SKY/WX    TMP DP  RH WIND       PRES   REMARKS
BURLINGTON     CLOUDY    65  61  87 SW12      29.57F                  
FAIRFIELD *    CLOUDY    64  63  94 SW14      29.55S                  
FORT MADISON * CLOUDY    64  63  94 SW9G17    29.58F                  
KEOKUK *       CLOUDY    63  63 100 SW9       29.57F                  
OSKALOOSA *    CLOUDY    63  60  91 SW13      29.54F                  
CENTERVILLE *  MOCLDY    63  63 100 S13       29.57F                  
OTTUMWA        CLOUDY    64  61  90 SW10      29.54F                  
WASHINGTON *   CLOUDY    64  64 100 SW16      29.56S                  
$$

ABBREVIATIONS USED IN REMARKS
   TC - TEMPERATURES IN CELSIUS
  WCI - WIND CHILL INDEX
   HX - HEAT INDEX
  VSB - VISIBILITY  
$$